Location: Blangy-Tronville
(49.8790°N, 2.4226°E)
Time: 00:17:59
(UTC+00:00)

CZ-2D R/B - Pass Details

Date: 18 November 2025
Orbit: 526 x 597 km, 98.0° (Epoch: 05 December)

Event Time Altitude Azimuth Distance (km) Brightness Sun altitude
Rises 17:44:54 0° 158° (SSE) 2,792 6.8 -16.2°
Reaches altitude 10° 17:47:02 10° 156° (SSE) 1,906 5.9 -16.5°
Maximum altitude 17:51:10 70° 73° (ENE) 635 3.3 -17.2°
Drops below altitude 10° 17:55:22 10° 350° (N) 1,947 6.1 -17.8°
Sets 17:57:34 0° 348° (NNW) 2,857 7.0 -18.2°
